Tracking 29892 objects as of 21-Nov-2024
HD Live streaming from Space Station
objects crossing your sky now

NOAA 16 DEB

Track NOAA 16 DEB now!
10-day predictions


NORAD ID: 41302
Int'l Code: 2000-055HE
Perigee: 819.1 km
Apogee: 850.3 km
Inclination: 98.7 °
Period: 101.5 minutes
Semi major axis: 7205 km
RCS: Unknown
Launch date: September 21, 2000
Source: United States (US)
Launch site: AIR FORCE WESTERN TEST RANGE (AFWTR)

Note: This is SATELLITE DEBRIS
Your satellite tracking list
Your tracking list is empty




NASA's NSSDC Master Catalog

Two Line Element Set (TLE):
1 41302U 00055HE  24325.12163974  .00007587  00000-0  36203-2 0  9992
2 41302  98.7443  21.2186 0021684  72.1315 288.2223 14.19351742457377
Source of the keplerian elements: AFSPC